METEOR 2-6 DEB, 45500

Orbit data source: Space-Track

METEOR 2-6 DEB, 45500 is space debris in LEO originally from a launch on Tue, 09 Sep 1980 UTC launched from the Plesetsk Missile And Space Complex (PKMTR). Debris objects in space refer to the collection of defunct objects orbiting the Earth. Examples of debris include non-operational satellites, rocket bodies, and fragments generated from explosions, collisions, or faulty payload assembly.

Loading next visibility...
Identifier
45500, 1980-073U
Orbit
LEO
Country
Flag of CISCIS
Related business
Manufacturer
Unknown
Mission
Spacecraft
Bus & Motor
Unknown
Mass
Unknown
Launch date (UTC)
1980-09-09 (45 years ago)
Launch vehicle
Unknown
Launch site
Plesetsk Missile And Space Complex (PKMTR)
Object type
Payload
Rocket body
Debris
Shape & HBR
Unknown shape, 0.1 m
Radar Cross Section
Small (<0.1 m²)

Expand to show TLE details & history
Last TLE update: 3 days ago

TLE from 3 days ago
0 METEOR 2-6 DEB
1 45500U 80073U   25306.27210236  .00002891  00000-0  11744-2 0  9990
2 45500  81.2214 290.1602 0053028 359.0358   1.0711 14.26633106468960
Epoch: 2025-11-02T06:31Z
TLE epoch observation values (Epoch: 2025-11-02T06:31:49.643Z)
Latitude
0.00002°
Longitude
150.41314°
Altitude
767.847 km
Speed
7.49 km/s
True Right ascension
19h 20m 38s
True Declination
0° 00' 00"
Sunlit
Object was in daylight at epoch
Visualization orbit readout
Latitude
Unknown
Longitude
Unknown
Altitude
Unknown
Speed
Unknown
Apparent Right ascension
Unknown
Apparent Declination
Unknown
Sunlit
N/A
Visualization observer readout
Local Sidereal Time
02:27:13
Azimuth
Unknown
Elevation
Unknown
Doppler factor
Unknown
Orbital elements
Apogee altitude
838.225 km
Perigee altitude
762.095 km
Semi-major axis
7,178.297 km
Eccentricity
0.0053
Inclination
81.2214°
RAAN
290.1602°
Arg. of periapsis
359.0358°
True anomaly
1.08253°
Mean anomaly
1.0711°
Eccentric anomaly
1.07681°
Mean motion
3.56871 °/min
Orbital period
100.88 mins
BSTAR
0.0011744
Loading maneuver chart data...
Computing Atmospheric mass density...
Loading historical data...
Loading historical data...
Loading historical data...
Loading historical data...
Loading historical data...
Loading historical data...
Loading historical data...

Documentation

Showing up to 5 results
|